Grand Marais, MN

8:53 AM CDT on April 24, 2018 (GMT -0500)
Grand Marais

Weather History for KGNA - February, 2013

Change the Weather History Date:

Sunday, February 24, 2013

  Actual Average (KCKC) Record (KCKC)
Temperature  
Mean Temperature 25 °F -  
Max Temperature 34 °F 22 °F 42 °F (1998)
Min Temperature 16 °F 7 °F -18 °F (1997)
Degree Days  
Heating Degree Days 40    
Moisture  
Dew Point 22 °F    
Average Humidity 77    
Maximum Humidity 85    
Minimum Humidity 69    
Precipitation  
Precipitation 0.00 in - - ()
Sea Level Pressure  
Sea Level Pressure 30.06 in    
Wind  
Wind Speed 2 mph (NW)    
Max Wind Speed 6 mph    
Max Gust Speed -    
Averages and records for this station are not official NWS values.
T = Trace of Precipitation, MM = Missing Value Source: NWS Daily Summary

Daily Weather History Graph

Daily Weather History Graph

Search for Another Location

Airport or City:

Astronomy

Feb. 24, 2013 Rise Set
Actual Time 6:50 AM CST 5:38 PM CST
Civil Twilight 6:19 AM CST 6:10 PM CST
Nautical Twilight 5:43 AM CST 6:45 PM CST
Astronomical Twilight 5:08 AM CST 7:21 PM CST
Moon 4:50 PM CST 5:49 AM CST
Length of Visible Light 11h 50m
Length of Day
10h 47m
Waxing Gibbous, 99% of the Moon is Illuminated
Feb 24
Waxing Gibbous
Feb 25
Full
Mar 4
Last Quarter
Mar 11
New
Mar 19
First Quarter

Hourly Weather History & Observations

Time (CST) Temp. Windchill Dew Point Humidity Pressure Visibility Wind Dir Wind Speed Gust Speed Precip Events Conditions
12:56 AM 26.1 °F - 21.0 °F 81% 29.97 in - Calm Calm - N/A   Unknown
1:56 AM 26.1 °F 21.9 °F 19.9 °F 78% 29.98 in - North 3.5 mph - N/A   Unknown
2:56 AM 27.0 °F - 19.9 °F 75% 29.99 in - Calm Calm - N/A   Unknown
3:56 AM 25.0 °F 18.1 °F 18.0 °F 75% 29.99 in - NNW 5.8 mph - N/A   Unknown
4:56 AM 21.9 °F 17.2 °F 16.0 °F 78% 30.01 in - NNW 3.5 mph - N/A   Unknown
5:56 AM 18.0 °F 12.7 °F 12.9 °F 81% 30.04 in - NW 3.5 mph - N/A   Unknown
6:56 AM 16.0 °F - 12.0 °F 84% 30.06 in - Calm Calm - N/A   Unknown
7:56 AM 25.0 °F 20.7 °F 18.0 °F 75% 30.06 in - NNW 3.5 mph - N/A   Unknown
8:56 AM 28.9 °F 25.2 °F 21.0 °F 72% 30.06 in - SSE 3.5 mph - N/A   Unknown
9:56 AM 30.0 °F 25.2 °F 21.0 °F 69% 30.07 in - ESE 4.6 mph - N/A   Unknown
10:56 AM 32.0 °F 28.7 °F 23.0 °F 69% 30.08 in - SE 3.5 mph - N/A   Unknown
11:56 AM 32.0 °F - 25.0 °F 75% 30.09 in - Calm Calm - N/A   Unknown
12:56 PM 32.0 °F - 25.0 °F 75% 30.09 in - Calm Calm - N/A   Unknown
1:56 PM 32.0 °F 26.4 °F 25.0 °F 75% 30.08 in - SSW 5.8 mph - N/A   Unknown
2:56 PM 34.0 °F 29.8 °F 27.0 °F 75% 30.08 in - SSW 4.6 mph - N/A   Unknown
3:56 PM 34.0 °F - 26.1 °F 73% 30.09 in - Calm Calm - N/A   Unknown
4:56 PM 34.0 °F - 27.0 °F 75% 30.09 in - Calm Calm - N/A   Unknown
5:56 PM 30.0 °F - 24.1 °F 79% 30.10 in - Calm Calm - N/A   Unknown
6:56 PM 28.0 °F - 23.0 °F 81% 30.11 in - Calm Calm - N/A   Unknown
7:56 PM 28.9 °F - 24.1 °F 82% 30.11 in - Calm Calm - N/A   Unknown
8:56 PM 28.0 °F - 23.0 °F 81% 30.10 in - Calm Calm - N/A   Unknown
9:56 PM 28.9 °F - 24.1 °F 82% 30.10 in - Calm Calm - N/A   Unknown
10:56 PM 28.9 °F - 25.0 °F 85% 30.10 in - Calm Calm - N/A   Unknown
11:56 PM 27.0 °F 23.0 °F 23.0 °F 85% 30.10 in - NNW 3.5 mph - N/A   Unknown